GFSWCAN_con_mlcape_159.txt.gz
CAPE
0 0 2 2 1 1 1 1 2 1 1 0 0 0 0 0 0 0 0 0 0 0 0 0 0 0 0 0 0 0 1 0 0 0 0 0 0 0 0 0 0 0 0 0 0 0 0 0 115 62 101 83 53 33
0 1 2 1 1 1 1 1 1 2 0 0 0 0 0 0 0 0 0 0 0 0 0 0 0 0 0 0 0 0 0 0 0 0 0 0 0 0 0 0 0 0 0 0 0 0 0 0 1 14 18 8 29 1
0 0 1 2 1 1 1 1 1 0 0 0 0 0 0 0 0 0 0 0 0 0 0 0 0 0 0 0 0 0 0 0 0 0 0 0 0 0 0 0 0 0 0 0 0 0 0 0 0 39 38 26 8 0
0 0 5 1 1 1 2 1 0 0 0 0 0 0 0 0 0 0 0 0 0 0 0 0 0 0 0 0 0 0 0 0 0 0 0 0 0 0 0 0 0 0 0 0 0 17 9 7 19 48 117 153 0 72
0 1 5 1 2 0 0 0 0 0 0 0 0 0 0 0 0 0 0 0 0 0 1 0 0 0 0 0 0 0 0 0 0 0 0 0 0 0 0 0 0 0 0 0 15 62 27 26 131 135 230 89 0 117
0 4 4 1 2 1 0 0 0 0 0 0 0 0 0 0 0 0 0 0 0 2 7 0 0 0 0 0 0 0 0 0 0 0 0 0 0 0 0 0 0 0 0 0 0 7 22 20 155 144 84 234 0 63
0 7 2 1 2 1 0 0 0 0 0 0 0 0 0 0 0 0 0 0 0 0 16 0 0 1 0 0 0 0 0 0 0 0 0 0 0 0 0 0 0 0 0 0 0 24 2 14 53 58 40 49 67 86
0 3 2 2 2 2 3 1 0 0 0 0 0 0 0 0 1 0 0 0 0 0 8 1 0 4 0 0 0 0 0 0 0 0 0 0 0 0 0 0 0 0 0 0 0 6 0 0 0 4 1 0 129 297
0 23 2 0 0 0 0 1 0 0 0 0 0 0 0 0 0 0 0 0 0 0 1 7 1 13 0 0 0 0 0 0 0 0 0 0 0 0 0 0 0 0 0 0 0 0 0 0 0 0 0 65 62 417
0 19 8 0 0 0 0 0 0 0 0 0 0 0 0 0 0 0 0 1 1 0 1 1 0 0 0 0 8 0 0 0 0 0 0 0 0 0 0 0 0 0 0 0 0 0 0 0 0 0 3 75 145 227
11 11 8 2 1 0 0 0 0 0 0 0 0 2 0 0 0 0 16 2 0 1 0 0 0 0 0 3 30 32 6 4 17 0 0 0 0 0 0 0 0 0 0 0 0 0 0 0 0 0 0 46 152 214
7 7 5 3 3 2 0 1 1 0 0 0 0 0 0 2 0 0 5 7 0 0 8 9 0 0 0 27 76 76 61 7 25 8 0 0 0 0 0 0 0 0 0 0 0 0 0 0 0 0 0 7 114 181
5 6 3 4 2 2 1 2 1 0 0 0 1 1 13 8 6 8 4 2 1 21 5 25 16 0 3 25 24 3 26 24 2 6 0 0 0 0 0 0 0 6 7 12 4 0 0 0 0 0 0 0 1 84
6 6 4 6 7 4 2 1 0 0 0 0 3 0 0 1 0 0 11 7 1 0 2 3 46 29 43 0 2 0 0 1 1 3 9 0 46 85 40 0 0 6 13 11 14 12 0 0 0 0 0 0 0 17
11 14 7 4 4 3 2 1 1 0 1 2 3 0 0 0 1 2 1 4 2 3 0 11 53 74 70 47 42 5 0 2 11 4 2 54 192 138 104 51 13 3 1 2 9 18 17 0 0 0 0 0 0 0
2 0 0 0 0 0 3 2 0 0 1 0 0 0 0 2 3 7 0 0 2 4 3 1 24 14 14 39 39 39 16 22 30 54 113 43 0 0 23 60 98 136 147 120 83 3 0 0 0 0 0 0 0 4
0 0 0 0 1 0 0 0 0 1 0 0 0 0 0 0 0 0 0 0 0 0 8 0 5 21 17 16 5 22 33 60 69 111 42 37 10 2 10 20 6 5 27 115 153 147 5 0 0 0 0 0 0 19
0 3 0 0 0 0 0 0 2 0 0 0 0 0 0 0 0 0 0 0 0 16 22 15 3 13 13 21 25 18 22 18 40 33 0 0 0 0 0 0 1 12 21 25 122 145 124 41 9 0 0 32 53 57
1 0 2 0 0 7 0 0 0 0 0 0 0 0 0 0 0 0 0 0 0 11 8 6 0 0 1 11 7 0 0 16 28 10 0 0 0 1 0 0 3 0 19 40 38 116 65 58 55 4 1 76 105 126
0 0 0 1 1 9 14 13 0 0 0 0 0 0 0 0 0 0 0 0 0 0 3 0 0 0 2 9 0 0 7 12 16 4 0 17 0 0 0 1 1 0 1 2 23 9 19 50 42 43 17 97 165 192
0 0 0 0 3 0 0 0 10 8 3 0 0 0 0 0 0 0 0 0 0 0 0 0 8 2 0 0 0 0 0 0 0 0 0 0 4 0 0 0 0 1 0 0 0 0 20 22 83 88 72 62 226 279
11 3 3 0 0 6 0 0 0 0 0 0 0 0 0 0 0 0 0 0 0 0 0 0 0 0 0 0 0 0 0 0 0 2 1 0 0 0 0 0 26 7 0 0 0 0 0 11 15 94 116 120 189 308
0 1 6 6 0 1 0 0 0 0 0 0 0 1 0 0 0 0 0 0 0 0 0 0 0 0 0 0 0 0 12 17 13 5 0 0 0 0 1 18 32 0 0 0 0 0 0 0 0 42 59 90 123 202
0 0 6 16 0 0 0 0 0 0 0 8 6 3 6 0 0 2 2 4 17 5 1 0 0 0 0 0 0 0 0 11 6 3 0 0 4 0 0 6 1 0 0 0 0 0 0 0 0 0 17 57 45 34
1 0 0 0 0 3 1 0 0 0 0 12 6 0 0 0 0 6 18 2 0 2 1 2 0 5 2 4 8 10 8 0 0 6 24 24 25 20 13 9 0 0 0 0 0 0 0 0 0 0 7 49 16 19
1 0 0 4 2 0 0 1 2 1 0 3 2 1 1 9 12 3 0 2 0 7 4 4 8 7 14 15 9 9 10 2 3 4 30 51 53 56 42 7 0 0 0 0 0 0 0 0 0 0 0 0 0 0
0 0 0 0 1 6 0 0 0 0 1 16 3 5 16 13 8 0 0 0 16 19 16 19 31 19 13 12 3 0 0 0 3 10 23 25 27 25 5 0 0 0 4 10 0 0 0 0 0 0 0 0 0 0
0 0 0 0 0 0 0 3 2 0 17 5 9 2 0 6 1 1 2 12 9 9 17 0 3 25 21 16 1 0 0 0 1 2 7 7 9 1 2 9 2 3 20 5 8 2 1 16 16 0 0 0 0 0
0 0 0 0 0 0 4 1 3 15 4 5 0 0 0 12 5 6 6 21 18 13 3 2 1 1 47 63 33 5 3 0 4 0 0 0 0 0 0 0 0 0 7 0 2 15 38 15 5 5 6 16 0 4
0 0 0 1 8 6 15 12 13 8 1 0 6 3 3 6 25 14 15 40 40 26 15 29 42 37 52 52 45 32 23 1 0 0 0 0 0 0 0 0 0 8 24 19 14 0 0 0 0 0 0 0 0 10
0 4 0 1 3 0 10 1 2 0 8 0 0 0 5 9 14 1 8 14 9 0 0 0 0 4 43 58 34 76 53 3 2 6 0 0 0 0 1 5 9 13 3 0 0 0 0 0 5 11 17 21 17 16
0 3 3 7 9 3 3 5 4 0 0 0 0 7 9 26 28 7 7 21 9 0 0 5 15 4 0 0 0 1 40 10 0 0 9 1 0 0 0 0 0 0 0 0 0 0 3 3 0 0 0 7 3 0
0 4 5 0 1 8 1 7 4 0 1 23 26 12 45 50 32 10 0 3 21 26 13 4 0 0 0 0 5 8 21 7 14 23 14 35 53 46 26 11 8 7 0 0 0 0 0 7 0 0 0 0 0 0

GFSWCAN_con_mlcape_162.txt.gz
CAPE
0 0 0 1 2 4 1 1 2 2 1 1 1 0 0 0 0 0 0 0 0 1 0 0 0 0 0 0 0 0 0 0 0 0 0 0 0 0 0 0 0 0 0 0 0 0 0 0 3 0 0 0 1 51
0 0 0 0 1 1 1 2 1 1 1 1 0 0 0 0 0 0 0 0 0 0 0 0 0 0 0 0 0 0 0 0 0 0 0 0 0 0 0 0 0 0 0 0 0 0 0 0 0 0 0 0 5 69
0 0 0 0 7 1 1 1 1 1 1 0 0 0 0 0 2 0 0 0 0 0 0 0 0 0 0 0 0 0 0 0 0 0 0 0 0 0 0 0 0 0 0 0 0 0 0 0 0 0 0 0 6 16
0 0 0 0 3 1 1 2 1 1 1 2 2 1 1 0 0 2 0 0 0 0 0 0 0 0 0 0 0 0 0 0 0 0 0 0 0 0 0 0 0 0 0 0 0 1 0 0 0 4 66 7 21 13
0 0 0 7 2 1 0 0 0 0 0 0 1 1 0 0 0 0 0 0 0 0 0 0 0 0 0 0 0 0 0 0 0 0 0 0 0 0 0 0 0 0 0 0 0 0 0 0 0 29 177 3 94 6
0 0 0 10 3 2 2 0 0 0 0 0 0 0 1 0 0 0 0 0 0 0 3 1 0 0 0 0 0 0 0 0 0 0 0 0 0 0 0 0 0 0 0 0 0 0 0 0 10 83 134 128 25 201
0 0 0 3 2 2 1 0 0 0 0 0 0 0 0 1 0 0 0 0 0 0 6 0 0 0 0 0 0 0 0 0 0 0 0 0 0 0 0 0 0 0 0 0 0 0 1 2 21 55 30 113 4 236
0 0 0 4 3 2 1 2 2 0 0 0 0 0 0 1 1 0 0 0 0 0 6 0 0 0 1 1 0 0 0 0 0 0 0 0 0 0 0 0 0 0 0 0 0 4 0 0 2 28 3 2 28 42
3 3 13 5 0 0 0 0 2 0 0 0 0 0 0 1 0 0 0 0 0 0 1 15 6 0 0 0 0 0 0 0 0 0 0 0 0 0 0 0 0 0 1 0 0 4 0 0 0 2 1 0 0 19
0 0 17 21 0 0 0 0 0 0 0 0 0 0 0 0 0 0 0 1 1 1 1 0 0 0 0 0 26 0 0 0 0 0 0 0 0 0 0 0 0 0 0 0 0 5 0 0 0 0 0 0 0 9
5 6 11 15 2 2 0 0 0 0 0 0 1 0 0 1 0 0 3 1 0 2 1 0 0 0 0 0 14 40 27 0 0 0 0 0 0 0 0 0 0 0 0 0 0 0 0 0 0 0 0 0 0 25
5 7 11 9 5 3 1 0 0 0 0 0 0 0 0 5 0 0 2 7 0 0 0 23 8 0 0 3 15 43 34 12 20 0 0 0 0 0 0 1 1 0 0 0 0 0 0 0 0 0 0 0 0 21
4 5 7 4 5 3 2 0 1 0 0 0 1 3 10 10 19 8 3 13 6 9 3 13 33 23 0 30 0 0 21 13 0 12 5 0 0 0 0 0 0 0 0 0 0 0 0 0 0 0 0 0 0 30
7 7 5 5 4 8 5 0 0 0 1 0 1 0 3 0 0 0 10 6 8 0 1 0 17 45 17 11 7 1 0 6 25 20 22 1 57 57 21 0 0 0 0 0 0 0 1 0 0 0 0 0 0 0
11 12 10 9 7 5 1 0 1 0 1 1 3 1 0 0 0 9 5 0 1 2 3 5 23 45 29 25 16 2 0 2 0 1 0 30 28 60 74 46 6 1 0 0 0 3 5 0 0 0 0 0 0 0
4 1 0 0 0 2 3 2 1 0 3 2 0 0 0 1 1 0 0 1 2 20 5 1 24 14 14 12 0 7 4 0 1 6 40 1 23 42 27 42 65 101 113 105 58 7 0 0 0 0 0 0 0 0
0 0 0 0 0 1 2 0 0 1 0 0 0 0 0 0 0 0 3 0 4 0 1 0 1 10 0 0 0 2 4 7 2 34 22 3 0 0 0 0 5 12 24 59 89 85 57 0 0 0 0 0 0 0
0 3 1 0 0 0 0 0 2 1 0 0 0 0 0 0 0 2 0 0 0 0 19 7 0 12 9 5 3 13 8 1 29 16 6 0 0 0 0 0 0 0 0 0 0 23 56 10 3 0 0 0 0 0
1 1 1 0 0 6 0 0 0 0 0 0 0 0 0 0 0 0 0 0 0 0 2 9 1 0 0 5 10 6 2 8 21 13 1 0 0 0 0 0 0 0 1 0 0 1 3 8 8 5 3 0 0 0
0 0 0 1 2 11 28 25 0 0 0 0 0 0 0 0 0 0 0 0 0 0 0 0 0 0 12 31 15 13 1 7 7 0 1 1 0 0 0 0 0 0 0 0 0 0 0 0 0 2 0 7 0 2
0 0 0 1 3 0 0 0 3 0 2 0 0 0 0 0 0 0 0 0 0 0 0 0 0 0 0 0 0 0 0 0 0 0 1 0 0 0 0 0 0 0 0 0 0 0 0 0 0 0 0 7 16 39
5 1 1 2 4 4 0 0 0 0 0 0 0 0 0 0 0 0 0 0 0 0 0 0 0 0 0 0 0 7 0 0 0 0 0 0 0 0 0 0 0 0 0 0 0 0 0 0 0 0 0 14 5 45
0 2 11 12 3 4 0 0 0 0 0 0 0 2 2 0 0 0 3 0 0 0 0 0 0 0 0 0 0 0 0 0 0 0 0 0 0 0 0 0 0 0 0 0 0 0 0 0 0 0 0 0 3 9
0 8 9 17 1 0 0 0 0 0 0 7 7 1 5 2 0 8 5 2 12 1 1 0 0 0 0 0 0 0 0 0 0 0 0 0 5 4 0 5 8 0 0 0 0 0 0 0 0 0 0 1 22 46
1 0 0 0 0 4 2 0 0 0 3 3 5 1 0 0 0 2 6 10 1 0 4 1 1 0 0 0 1 0 0 0 0 0 1 5 14 17 24 13 6 0 0 0 0 0 0 0 0 0 0 0 20 15
0 0 0 2 1 0 0 1 4 0 0 2 5 1 2 9 9 2 1 0 2 20 17 25 22 9 14 18 18 15 8 0 3 6 6 7 14 31 45 34 10 0 0 0 0 0 0 0 0 0 0 0 0 0
0 0 0 0 0 2 3 2 0 2 1 9 1 6 4 4 1 6 1 6 7 18 12 13 15 8 4 2 0 0 0 0 0 0 1 3 0 11 12 9 13 8 10 1 0 1 0 0 0 0 0 0 0 0
0 0 0 0 0 0 4 2 1 0 9 11 9 5 4 1 2 6 4 12 21 10 0 14 1 0 8 0 0 0 0 0 0 0 5 10 7 6 11 1 0 4 25 23 9 5 12 4 5 1 0 0 1 0
0 0 0 0 0 0 3 0 0 9 14 4 1 0 5 13 8 16 13 21 28 7 10 8 3 18 32 34 17 0 0 0 0 0 0 0 1 0 0 0 0 2 0 0 0 0 0 0 0 0 0 0 3 21
0 0 0 0 0 2 12 12 17 8 1 1 7 1 6 1 2 9 31 21 9 10 12 20 30 34 31 10 4 0 0 0 0 0 0 0 0 0 0 0 6 11 8 0 0 0 0 0 0 0 4 9 15 17
0 0 0 0 1 1 1 1 7 1 14 10 1 1 3 11 20 13 22 4 0 0 0 5 6 19 41 44 23 0 0 0 0 0 0 0 0 0 1 8 10 0 0 0 0 0 0 1 2 10 24 14 13 12
0 1 9 0 5 0 3 7 8 1 0 2 7 0 0 17 24 16 0 0 3 10 0 1 8 0 0 0 15 13 0 0 0 0 0 0 0 0 0 0 0 0 0 0 0 0 0 0 0 0 0 3 9 2
0 0 0 0 1 6 4 4 4 0 2 7 1 1 19 26 25 12 0 0 0 3 0 0 0 0 0 0 10 16 5 0 0 0 0 0 3 7 3 0 0 2 1 0 0 0 1 17 19 12 1 0 0 0

GFSWCAN_con_mlcape_165.txt.gz
CAPE
0 0 0 0 0 1 2 4 1 1 6 1 1 1 0 1 0 0 0 0 0 1 0 0 0 0 0 0 0 0 0 3 0 0 0 0 0 0 0 0 0 0 0 0 0 0 0 0 10 15 0 11 0 29
0 0 0 0 0 1 4 5 1 1 1 1 1 2 1 3 2 0 0 0 0 2 0 0 0 0 0 0 0 0 0 0 0 0 0 0 0 0 0 0 0 0 0 0 0 0 0 0 17 10 0 1 19 152
0 0 0 0 0 4 1 1 1 1 1 1 0 1 3 2 1 0 0 0 0 1 0 0 0 0 0 0 0 0 0 0 0 0 0 0 0 0 0 0 0 0 0 0 0 0 0 0 0 0 0 1 43 275
0 0 0 0 0 8 1 1 2 1 1 2 2 2 2 0 2 3 0 0 0 0 0 0 0 0 0 0 0 0 0 0 0 0 0 0 0 0 0 0 0 0 0 0 0 0 0 0 0 1 46 24 65 90
0 0 0 0 2 6 1 0 0 0 0 0 1 2 2 2 0 0 1 1 1 0 0 0 0 0 0 0 0 0 0 0 0 0 0 0 0 0 0 0 0 0 0 0 0 17 9 0 0 41 68 129 37 92
0 0 0 0 9 2 2 1 0 0 0 0 0 0 1 1 0 0 0 1 2 0 2 0 0 0 0 0 0 0 0 0 0 0 0 0 0 0 0 0 0 0 0 7 12 14 15 0 2 97 185 163 140 234
0 0 0 0 10 4 2 1 0 0 0 0 0 0 0 1 2 0 0 0 0 0 2 2 0 0 0 0 0 0 0 0 0 0 0 0 0 0 0 0 0 0 0 0 0 4 14 2 3 96 205 33 193 162
1 2 0 0 10 2 0 0 2 2 0 0 0 0 0 2 2 0 0 0 0 1 5 1 0 1 2 12 0 0 0 0 0 0 0 0 0 0 0 0 0 0 0 0 0 29 32 67 64 114 137 90 275 459
1 4 0 12 2 0 0 0 3 2 0 0 0 0 0 1 0 0 0 0 0 0 2 10 4 1 0 0 1 0 0 0 0 0 0 0 0 0 0 0 0 0 0 0 0 3 13 29 56 68 43 35 98 297
1 1 0 21 7 0 0 0 0 0 0 0 0 0 0 0 0 0 0 3 1 1 0 1 1 0 0 0 0 2 0 0 0 0 0 0 0 0 0 0 0 0 0 0 0 7 13 25 29 51 23 1 0 14
0 8 5 5 7 0 0 0 0 0 0 0 0 1 0 0 12 7 3 5 3 2 2 1 1 0 0 0 0 19 20 0 0 0 12 4 0 0 0 0 0 0 0 1 18 37 44 30 15 14 17 40 19 0
6 5 7 12 8 4 4 0 0 0 0 0 0 0 1 8 3 1 2 11 1 1 0 2 0 2 2 0 28 48 51 12 6 0 0 0 0 9 14 0 0 0 0 0 0 0 0 0 0 0 5 0 0 14
11 3 4 6 7 6 4 0 0 0 0 0 1 0 11 15 0 3 4 7 4 5 14 15 7 30 6 0 3 27 30 31 7 7 0 0 0 10 34 21 0 0 0 0 0 0 0 0 0 0 0 0 0 0
4 7 7 5 7 3 5 0 0 0 0 1 9 1 1 2 1 0 2 12 6 5 2 7 7 21 22 4 0 2 0 5 30 34 35 32 56 38 52 0 0 0 0 0 0 0 0 0 0 0 0 0 0 0
11 10 15 9 7 9 4 0 0 0 1 2 6 1 0 0 2 6 10 4 2 2 6 10 20 32 3 4 12 1 0 0 2 7 2 62 43 76 93 39 4 0 0 0 0 0 0 3 0 0 0 0 0 0
11 4 0 2 5 6 1 0 0 0 1 1 2 0 1 6 11 5 1 6 3 4 4 6 18 6 5 2 0 14 1 0 0 8 45 48 27 6 29 62 84 123 137 69 11 2 2 8 7 0 0 0 0 0
0 0 0 0 0 1 1 0 1 3 2 0 0 0 0 0 0 0 13 7 5 2 1 2 0 5 0 0 0 1 8 9 11 14 21 4 0 0 1 28 30 33 24 32 75 82 50 0 0 0 0 0 0 0
0 5 2 1 0 4 0 1 4 3 0 0 0 0 0 0 0 1 3 1 0 0 5 5 5 3 11 4 4 1 14 33 56 15 12 1 0 0 0 5 6 17 11 5 8 15 26 71 59 38 0 0 0 0
1 1 3 0 0 0 0 0 0 0 0 0 0 0 0 0 0 0 0 0 0 0 0 12 9 7 0 1 0 29 25 40 41 20 1 0 1 0 0 6 2 6 4 0 0 0 0 0 3 9 14 0 0 3
0 0 0 1 1 4 13 11 0 0 0 0 0 0 0 0 0 0 0 0 0 0 1 0 0 0 6 25 11 11 19 15 9 5 0 3 0 0 0 0 0 0 0 0 0 0 0 0 0 0 0 2 25 90
0 0 0 2 1 0 0 0 0 4 3 0 0 0 0 0 0 0 0 0 0 0 0 0 0 0 0 0 0 4 2 0 0 3 10 2 0 0 0 0 0 0 0 0 0 0 0 0 0 0 0 0 25 67
4 1 1 8 9 5 0 0 0 0 0 0 0 0 0 0 0 0 0 0 0 0 0 0 0 0 0 0 0 0 1 0 0 0 0 1 5 0 1 0 0 0 0 0 0 0 0 0 0 0 0 5 23 54
0 5 9 7 2 6 0 0 0 0 0 0 1 3 2 0 0 0 1 0 0 0 0 0 0 0 0 0 0 0 0 0 0 0 0 0 0 0 0 0 0 30 26 8 0 0 0 0 0 0 0 2 0 7
0 9 12 15 1 0 0 0 0 0 5 7 3 0 0 6 0 6 1 0 4 8 5 18 4 0 0 0 0 0 0 0 0 0 0 0 0 15 0 4 16 19 10 1 0 0 0 0 0 0 0 0 0 94
5 0 0 1 0 1 5 2 0 0 3 4 1 0 0 0 5 9 0 10 1 3 16 6 11 1 0 0 0 0 0 0 0 0 4 0 14 16 30 33 37 23 0 0 0 0 0 0 0 0 0 0 22 25
0 0 0 1 2 0 0 0 2 2 3 3 9 4 1 16 11 2 1 3 5 11 4 20 35 16 19 29 26 30 17 5 12 22 8 1 13 35 63 65 38 28 17 7 1 0 3 1 1 1 2 2 0 5
0 0 0 0 0 0 3 4 3 3 0 4 6 8 3 2 4 17 11 25 1 27 19 19 34 37 14 7 5 4 0 0 1 9 10 16 2 0 1 23 18 26 31 18 14 3 2 1 2 3 3 2 2 1
1 0 0 0 0 0 2 2 0 1 6 20 6 0 0 6 11 16 5 12 27 23 22 17 19 32 35 0 0 0 1 7 9 13 14 13 1 7 4 1 3 8 24 15 29 9 5 0 1 3 2 1 2 2
0 0 0 0 0 0 3 1 6 5 20 4 5 1 17 15 29 30 50 59 75 63 78 74 57 52 38 24 0 0 0 0 19 24 9 1 5 1 8 20 15 9 17 13 0 0 0 2 1 0 0 0 0 0
0 0 0 0 0 0 0 3 5 13 3 6 3 5 1 6 24 32 51 38 38 66 76 92 90 79 15 0 0 0 0 0 0 0 8 0 1 22 40 49 44 19 6 14 18 2 0 4 3 0 0 0 0 0
0 0 0 0 1 4 4 2 8 4 8 0 0 3 25 45 53 29 35 15 0 3 38 63 71 83 86 9 0 0 0 0 0 4 15 11 23 37 44 30 23 5 0 0 8 16 20 31 39 43 37 24 17 17
0 0 9 5 5 3 4 6 8 2 2 10 19 22 59 62 78 64 33 20 25 19 1 9 27 29 20 24 4 0 0 19 45 50 69 103 108 74 51 51 36 18 0 0 0 10 19 21 33 50 69 98 126 109
0 0 0 1 0 1 3 2 4 7 15 32 34 54 86 79 61 52 3 11 24 8 0 0 3 12 19 45 29 3 5 0 0 0 0 2 7 43 100 79 71 76 56 4 27 7 41 47 41 34 29 23 18 16

GFSWCAN_con_mlcape_168.txt.gz
CAPE
0 0 0 0 0 0 0 2 5 5 2 4 1 1 0 0 0 0 1 0 2 3 0 0 0 4 4 0 0 0 0 0 2 0 8 62 5 17 0 0 1 3 3 2 2 11 4 0 13 0 126 120 77 68
0 0 0 0 0 0 0 2 1 1 1 1 1 1 1 1 0 0 2 0 0 9 0 0 0 0 0 0 1 2 0 0 0 29 36 24 5 10 1 9 6 2 4 48 27 39 33 20 90 125 105 92 113 284
0 0 0 0 0 0 3 1 1 2 1 2 1 1 1 0 0 0 5 3 3 4 0 0 0 0 0 0 0 0 3 0 0 0 0 0 4 0 0 10 3 7 19 0 14 2 6 25 100 71 119 109 242 387
0 0 0 0 0 0 4 1 0 1 2 2 2 2 2 0 0 0 5 5 2 5 0 0 0 0 0 0 0 0 0 0 0 0 0 0 0 0 17 58 32 32 11 22 33 61 22 2 41 79 197 241 284 613
0 0 0 0 0 0 1 0 0 1 0 0 0 1 2 2 0 0 6 1 0 6 0 0 0 0 0 0 0 0 0 0 0 0 0 0 9 0 0 16 27 65 33 35 15 42 5 5 2 171 201 262 311 429
0 0 0 0 0 3 1 1 0 0 0 0 0 0 0 2 0 3 7 0 2 4 3 0 0 0 1 8 0 0 0 0 0 3 0 0 0 0 0 1 13 84 131 59 5 57 0 3 61 241 213 237 372 711
0 0 0 0 0 7 2 0 0 0 0 0 0 0 0 1 3 2 4 2 0 1 1 3 3 0 0 5 0 6 1 0 9 6 0 0 0 0 0 12 49 86 109 108 170 197 140 91 132 254 290 239 341 501
0 0 1 0 3 1 0 0 0 3 2 0 0 0 0 0 0 0 4 0 3 4 11 12 7 5 0 3 13 0 0 10 5 0 0 0 0 0 0 8 14 166 101 65 205 125 51 195 277 333 310 380 326 310
0 0 2 1 14 0 0 0 0 1 0 0 0 0 3 2 2 7 0 0 0 3 8 27 21 7 0 0 0 21 25 10 2 0 0 0 4 0 14 32 23 188 69 62 122 131 148 257 300 360 205 415 554 484
0 0 0 0 15 0 0 0 0 0 0 0 0 1 21 14 0 0 5 6 2 1 1 1 8 18 0 2 0 41 17 1 0 0 0 1 26 81 29 9 31 227 162 116 73 107 116 194 347 290 170 173 219 600
0 0 0 2 7 1 0 0 0 0 0 0 2 3 12 0 12 24 30 16 4 3 3 6 8 16 7 1 0 0 36 19 0 2 1 20 35 59 119 166 63 105 181 192 139 114 63 58 167 215 193 132 97 202
0 1 0 4 7 3 3 0 0 0 0 0 0 0 8 30 31 17 14 27 4 5 9 2 0 1 9 0 2 2 22 35 33 13 50 94 96 157 216 86 264 142 58 76 134 155 92 79 66 106 189 261 198 176
0 6 2 3 3 8 7 4 0 0 0 5 3 9 7 32 4 12 16 9 2 6 6 11 9 24 2 0 2 7 40 27 77 56 3 28 66 212 351 283 39 121 93 56 30 66 52 108 103 125 132 189 281 357
3 4 6 5 5 7 2 2 0 0 2 7 27 0 9 12 9 0 3 20 22 17 6 1 2 11 3 1 0 2 1 10 27 4 14 175 245 390 482 437 276 264 36 41 42 19 58 100 52 25 73 113 158 279
6 9 7 8 4 4 6 0 0 5 4 7 19 2 6 17 21 25 20 20 29 4 1 17 34 26 1 1 5 2 0 2 32 37 93 308 329 465 442 415 274 119 64 67 88 64 54 73 98 116 92 92 133 276
14 9 7 6 8 9 5 0 3 7 7 3 2 0 15 12 23 23 10 13 4 2 14 16 7 5 14 12 16 14 9 1 18 95 216 215 176 187 369 442 496 573 461 308 135 138 111 130 177 225 219 164 132 164
0 0 0 0 2 6 1 14 11 5 1 1 2 0 1 18 23 8 24 20 1 2 12 5 24 10 6 20 24 9 35 62 59 109 131 43 90 60 166 205 230 248 307 446 529 511 207 86 91 148 218 245 174 201
1 7 4 0 3 3 10 2 8 15 5 1 2 9 0 0 10 11 4 5 1 0 2 0 1 21 20 4 9 20 29 8 16 28 0 1 2 50 143 202 192 201 215 234 211 189 258 440 457 363 411 370 224 170
1 1 2 0 7 9 16 13 12 7 18 14 2 0 0 0 0 3 25 34 31 20 7 26 12 22 15 0 0 0 27 16 22 27 31 20 38 59 202 158 142 150 78 60 39 41 83 178 139 133 129 162 162 140
0 0 0 0 1 1 13 23 4 5 0 10 0 0 3 4 15 10 11 19 7 22 12 5 0 26 28 21 6 4 5 3 21 24 12 11 14 84 74 65 60 107 34 14 0 0 0 0 0 3 11 22 52 66
1 2 0 5 4 7 17 13 0 4 11 29 32 11 0 0 0 0 4 2 1 0 0 0 0 0 8 15 3 6 10 0 0 2 6 40 91 61 41 31 16 13 14 4 6 5 1 0 0 0 0 0 6 64
12 1 19 19 18 19 1 6 2 3 3 3 1 4 5 11 13 10 5 1 10 13 7 0 0 0 0 0 0 3 8 11 31 27 8 8 62 39 46 41 24 31 42 46 19 10 5 0 0 0 0 0 0 80
2 9 22 23 12 6 0 3 13 24 16 11 15 18 17 10 3 0 16 11 6 2 3 24 57 133 122 54 19 0 15 27 9 11 2 2 34 34 16 20 33 80 1 50 94 6 0 0 0 0 0 0 53 34
0 12 5 11 9 1 12 17 8 13 21 12 3 1 1 1 6 0 0 4 6 11 23 74 177 183 21 0 0 0 0 0 0 0 2 5 4 30 65 9 22 68 133 87 36 31 22 6 0 6 9 23 75 102
5 0 2 1 5 6 10 15 13 5 2 1 1 0 1 6 2 1 5 14 21 4 9 13 131 175 8 21 8 0 0 0 0 0 5 0 0 14 27 59 154 103 37 47 18 10 9 13 18 30 30 50 89 121
0 2 0 14 16 7 8 8 5 4 2 1 1 7 3 10 6 6 12 10 29 14 39 40 24 11 49 26 16 75 90 62 46 9 70 22 6 63 39 35 52 105 66 48 45 19 4 16 11 3 4 0 0 0
0 5 3 0 0 7 10 13 2 0 0 7 7 6 7 3 6 6 19 31 38 89 152 129 79 101 77 109 165 149 144 143 189 140 101 62 10 11 32 19 27 31 34 48 46 42 14 4 5 7 6 4 3 1
3 1 3 6 3 9 11 7 1 2 9 10 3 0 8 8 8 7 19 24 91 137 109 106 96 45 72 126 68 61 91 108 69 38 37 22 64 65 24 12 9 0 2 9 27 19 17 6 6 3 0 0 2 3
2 1 0 0 0 2 0 0 0 1 16 11 2 3 28 32 42 47 78 173 197 232 74 43 52 21 15 12 47 69 72 86 166 27 14 17 8 17 18 16 20 26 9 1 0 0 15 15 4 0 0 0 0 0
0 0 0 0 2 0 0 0 1 11 5 1 28 55 30 27 153 170 210 198 166 98 91 75 43 4 3 5 12 30 49 86 77 17 25 15 24 40 46 38 32 37 56 42 24 16 0 17 6 2 1 0 0 1
0 1 2 2 8 18 21 21 42 25 0 12 40 52 30 140 116 135 118 89 71 91 99 81 48 36 2 5 4 12 77 83 36 10 22 24 23 27 28 34 39 21 24 60 73 69 83 104 110 79 55 58 45 59
0 1 18 21 14 20 8 5 31 11 20 26 39 95 170 93 59 68 82 50 19 21 22 56 57 36 11 1 0 0 18 41 57 74 30 9 2 19 30 36 41 29 28 39 56 69 69 62 96 143 203 229 200 163
4 26 18 4 21 9 0 21 30 40 18 50 77 95 108 51 22 45 62 68 12 5 6 29 192 311 287 84 63 35 36 24 1 0 0 0 3 25 132 98 102 142 108 101 89 152 159 104 88 101 106 103 105 119

GFSWCAN_con_mlcape_171.txt.gz
CAPE
0 0 0 0 0 0 0 0 2 2 1 2 1 0 0 0 0 0 6 13 6 10 1 2 17 18 11 14 10 7 1 12 0 0 1 44 100 136 37 16 76 41 22 30 27 36 41 24 1 0 85 86 94 95
0 0 0 0 0 0 0 0 2 1 0 1 1 0 0 0 0 0 0 6 9 7 0 0 0 0 0 0 0 0 3 29 64 22 68 96 95 150 99 65 4 101 49 74 66 153 77 20 4 10 48 0 3 20
0 0 0 0 0 0 0 0 2 1 0 1 1 1 1 0 0 0 0 4 2 6 0 0 0 0 0 0 0 0 1 6 11 0 2 169 224 237 128 13 0 87 168 117 96 73 41 0 50 19 4 0 47 336
0 0 0 0 0 0 0 3 1 0 0 1 2 2 2 0 0 0 1 1 6 9 2 0 0 0 0 0 0 0 0 7 12 5 0 47 204 250 153 9 10 62 63 47 39 71 5 0 19 10 0 11 267 666
0 0 0 0 0 0 0 2 1 0 0 0 0 0 2 1 0 0 0 4 10 11 2 0 0 0 1 0 1 0 0 0 7 13 7 0 84 176 143 56 18 23 30 63 72 124 43 4 17 4 0 73 318 628
0 0 0 0 0 0 2 2 1 0 0 0 0 0 0 0 0 2 3 8 4 3 12 0 0 0 5 8 18 0 9 12 10 23 9 8 34 1 57 55 28 0 36 69 57 126 29 26 0 0 8 89 292 693
0 0 0 0 0 0 3 2 1 0 0 0 0 0 0 0 3 0 5 0 0 7 23 5 3 1 0 1 34 5 11 22 19 27 12 5 17 14 69 99 49 43 43 119 107 4 0 0 16 0 36 126 309 550
0 0 0 0 0 1 0 0 0 0 2 3 0 0 0 0 0 0 0 0 0 19 21 9 6 27 0 0 7 24 16 11 3 7 0 0 3 11 147 149 14 73 37 219 88 27 16 9 37 41 69 125 246 399
0 0 0 2 0 9 0 0 0 0 0 0 0 0 1 1 0 16 0 0 0 0 22 20 16 22 0 0 0 0 11 1 0 12 18 0 0 58 103 346 119 30 270 238 164 58 46 52 61 75 71 124 148 218
0 0 0 0 0 6 0 0 0 0 0 0 0 3 0 17 0 1 2 11 1 2 1 1 9 12 4 8 2 8 8 4 30 19 1 7 62 112 53 19 39 290 206 249 193 85 71 86 89 79 7 87 237 282
0 0 0 0 0 7 0 0 0 0 0 2 2 2 0 0 26 27 24 5 4 3 5 7 5 5 5 0 3 0 18 3 3 2 1 5 22 0 63 0 33 182 321 367 198 90 70 138 123 77 43 62 139 233
0 0 0 0 1 2 4 0 0 0 9 0 0 0 0 19 23 25 10 29 16 3 6 3 1 0 3 1 5 1 18 17 14 6 3 23 125 119 221 398 355 27 111 232 282 87 54 98 176 151 141 99 99 132
0 0 0 2 3 4 8 5 0 0 0 4 1 13 21 14 11 6 11 32 1 6 12 6 4 11 4 0 2 2 16 23 89 58 55 136 621 702 696 527 535 378 207 141 164 258 70 45 84 127 152 148 128 122
0 0 2 3 4 4 8 0 0 0 0 14 11 0 4 13 15 17 13 22 48 59 9 4 4 2 4 5 5 13 16 4 20 1 40 359 408 565 897 741 624 118 61 66 212 101 137 118 117 121 123 160 175 245
1 6 5 3 4 3 2 0 0 3 25 3 23 1 7 17 5 33 24 12 65 25 27 6 23 0 2 0 0 0 16 12 20 24 74 595 758 902 829 547 371 404 248 43 205 179 109 141 215 194 136 227 183 297
5 8 14 10 6 5 7 0 4 19 23 23 17 7 17 18 23 34 18 39 18 38 30 53 13 3 1 11 20 7 3 0 21 66 348 593 681 827 858 872 937 774 518 368 286 128 178 210 210 243 303 292 281 357
2 16 2 2 6 9 2 28 17 22 14 11 1 7 4 6 15 4 36 50 49 7 7 0 26 51 34 31 20 13 26 25 8 8 89 273 418 480 425 468 495 631 796 859 726 537 524 447 450 463 503 540 375 381
19 12 6 0 5 5 5 0 17 20 8 5 2 8 7 11 2 22 22 14 13 19 19 9 8 31 39 31 37 6 41 3 29 7 1 91 262 359 275 305 289 303 359 322 347 529 679 522 447 500 713 612 438 353
13 7 0 0 8 17 35 20 16 17 16 18 6 13 8 15 15 10 11 13 16 14 19 8 27 42 17 0 5 38 41 57 3 7 44 15 27 165 264 247 211 144 118 92 84 90 169 232 253 277 323 366 296 227
0 0 0 0 0 2 25 29 20 9 1 2 26 14 14 15 19 28 29 25 19 14 23 6 15 5 27 46 61 6 1 1 14 8 2 1 27 144 106 72 87 87 50 47 22 6 48 46 32 32 26 31 53 66
0 0 0 2 4 3 19 19 15 8 19 33 40 61 36 15 13 39 33 29 18 25 14 18 26 27 21 51 35 12 11 0 0 12 9 9 19 28 69 54 35 32 23 11 3 16 31 38 23 10 6 2 0 33
19 1 27 8 19 24 16 9 11 13 8 11 13 23 15 14 11 37 36 34 33 29 26 32 21 41 23 19 15 43 5 6 13 9 0 0 8 68 78 60 35 62 63 58 34 14 17 18 35 22 9 8 0 6
0 4 24 21 22 8 0 15 22 15 14 7 13 18 27 20 24 36 22 43 51 95 79 79 164 187 264 282 245 76 2 33 48 53 15 18 47 54 43 47 51 63 52 21 91 39 12 2 3 8 3 0 0 29
0 20 9 19 11 2 7 24 5 13 21 2 2 2 0 0 1 0 0 17 12 36 43 78 137 248 283 263 8 62 19 0 1 9 25 29 36 48 54 34 34 37 58 31 35 29 27 21 4 9 14 20 31 19
8 0 2 0 9 17 21 17 23 5 1 2 1 0 1 1 1 0 1 6 0 0 2 42 207 230 95 103 67 26 3 10 1 0 3 13 20 26 52 55 85 89 52 42 59 42 19 17 38 31 16 18 20 138
0 7 0 19 27 17 8 8 2 2 2 0 1 0 0 4 4 3 0 3 12 15 60 38 30 16 27 35 77 55 49 29 16 50 56 37 26 36 48 97 74 141 64 45 27 8 2 2 5 5 0 6 2 3
0 1 6 14 10 11 15 13 1 0 1 7 18 19 9 4 5 1 18 121 101 142 116 47 125 136 86 197 451 499 365 259 146 65 158 124 98 89 79 75 40 29 26 28 25 4 6 5 4 2 3 2 1 0
2 4 4 3 7 10 11 12 3 0 4 8 8 3 3 0 0 8 46 154 278 87 47 41 20 31 42 54 166 262 281 199 147 102 141 89 12 13 1 0 0 1 0 1 14 12 7 10 9 4 0 0 0 1
5 9 5 6 5 2 0 0 0 0 5 1 12 7 0 25 33 41 67 61 156 148 51 37 43 38 47 31 30 123 183 138 84 48 12 14 29 21 39 37 15 3 0 0 0 0 0 4 9 0 0 0 0 0
3 0 4 3 1 1 1 0 0 1 6 19 121 87 44 177 105 79 61 49 94 59 76 41 21 36 40 62 74 123 110 116 39 13 17 38 42 49 49 53 57 38 35 20 38 14 1 2 0 4 10 2 3 13
1 1 2 2 10 25 19 18 18 37 32 110 188 69 73 50 67 99 66 68 75 80 82 51 23 16 37 59 66 121 66 47 53 49 56 57 55 48 49 53 51 54 69 70 64 62 42 36 38 22 53 54 52 46
1 7 3 16 25 21 36 6 10 79 87 166 188 100 53 35 36 49 61 33 37 29 23 51 32 26 9 6 1 1 15 19 28 43 42 43 46 57 72 67 63 62 67 49 48 103 60 66 123 135 97 65 67 69
2 8 10 6 17 24 58 90 102 101 156 88 52 69 43 29 21 7 13 17 19 22 34 52 45 37 22 16 1 12 12 0 0 0 0 0 0 0 51 80 134 123 101 97 18 22 65 33 36 52 50 52 62 69

GFSWCAN_con_mlcape_174.txt.gz
CAPE
0 0 0 0 0 0 0 0 0 3 1 2 2 0 0 0 0 0 4 12 9 17 0 0 0 6 1 4 4 0 0 27 27 9 11 0 0 0 51 150 28 79 84 31 53 65 71 45 9 1 140 45 4 45
0 0 0 0 0 0 0 0 0 2 0 2 2 1 0 0 0 0 0 0 1 4 0 0 0 0 0 2 5 1 3 12 104 72 60 54 29 6 56 8 226 52 2 36 60 84 226 45 34 15 39 0 0 0
0 0 0 0 0 0 0 0 1 2 0 1 1 1 1 0 0 0 3 0 2 8 0 0 0 0 3 0 0 0 0 6 11 7 7 41 296 308 171 61 15 3 22 0 0 108 180 73 33 72 3 0 0 43
0 0 0 0 0 0 0 0 4 0 0 0 1 2 3 1 0 0 3 0 1 5 2 0 0 1 0 0 0 0 0 0 0 0 16 57 113 268 270 201 28 70 0 0 0 70 87 21 66 27 13 0 50 407
0 0 0 0 0 0 0 0 2 2 0 0 0 0 0 0 0 0 0 0 4 5 5 0 0 0 5 7 0 0 0 0 1 0 0 0 17 25 39 52 12 5 0 0 9 34 110 18 6 40 0 0 190 569
0 0 0 0 0 0 0 1 3 0 0 0 0 0 0 0 0 2 10 0 0 6 13 0 0 0 1 2 0 0 9 27 8 9 4 1 0 3 35 69 144 219 19 0 13 21 0 39 50 4 0 0 195 713
0 0 0 0 0 0 0 5 2 0 0 0 0 0 0 0 0 3 0 0 0 9 14 5 0 5 11 0 2 17 11 5 3 1 2 5 0 0 2 27 99 244 100 10 5 3 1 24 2 0 0 77 284 647
0 0 0 0 0 0 0 0 0 0 0 0 0 0 0 0 0 0 0 0 0 9 27 12 0 42 8 28 2 0 8 21 21 19 12 7 3 11 1 10 92 181 47 0 2 0 2 41 3 0 28 114 310 238
0 0 0 0 2 0 0 0 0 0 0 0 0 0 0 0 3 6 0 0 0 0 5 28 9 21 6 10 0 0 0 6 10 0 3 20 7 9 0 78 269 173 130 3 0 52 61 38 45 12 27 34 238 219
0 0 0 0 0 0 1 0 0 0 0 0 0 2 0 7 0 0 1 15 0 1 2 0 0 6 4 21 0 2 6 1 5 3 8 2 7 2 0 46 6 0 46 106 0 90 45 63 88 23 28 10 118 214
0 0 0 0 0 0 0 0 0 0 0 3 0 21 0 0 27 19 24 9 1 0 2 0 0 0 0 0 3 1 8 7 10 14 3 0 1 0 0 0 35 3 53 234 366 139 15 22 25 18 16 48 131 208
0 0 0 0 0 0 2 2 0 1 2 0 0 0 0 6 0 8 11 23 12 18 19 17 2 0 0 0 0 8 4 4 14 6 3 1 0 69 72 177 210 149 90 104 48 85 39 61 69 64 22 107 196 286
0 0 0 0 0 0 5 4 0 0 0 0 0 2 3 2 2 16 7 32 37 18 16 0 0 7 1 0 1 2 2 7 36 1 9 44 3 0 0 111 121 116 21 83 212 160 90 266 74 25 198 123 125 233
0 0 0 0 1 3 3 0 0 0 0 7 9 0 4 8 9 10 9 0 6 1 46 23 5 4 5 2 4 2 1 2 15 15 32 146 0 0 27 291 156 30 38 48 64 72 1 54 6 0 42 329 234 241
0 0 0 0 2 3 0 0 0 1 6 8 7 1 7 16 0 23 11 22 65 21 72 46 10 4 4 0 0 1 6 3 4 46 71 269 64 3 419 623 487 218 86 54 44 78 86 113 116 84 112 260 212 343
0 0 0 10 8 2 4 0 0 11 21 23 13 5 12 18 27 5 26 32 1 41 35 58 31 1 8 7 6 4 5 7 26 4 10 171 327 188 202 877 573 316 285 325 54 106 149 86 156 194 128 163 131 352
3 2 2 3 0 7 1 7 31 10 6 14 1 6 3 2 2 21 7 0 31 21 27 13 15 18 38 14 11 13 23 7 20 3 16 52 196 314 558 807 1102 1192 1059 843 695 620 373 238 227 250 317 384 288 360
0 10 9 2 3 3 24 5 15 16 12 6 3 4 11 6 0 27 30 3 24 14 16 4 10 35 37 23 23 31 92 8 6 5 1 32 175 253 395 504 574 583 676 876 905 673 540 493 263 50 455 750 617 566
13 19 0 1 5 12 20 3 9 13 6 11 6 5 11 2 12 20 15 30 30 43 26 14 11 2 27 44 35 33 47 43 0 3 24 3 52 115 212 275 210 164 152 158 244 350 348 292 213 199 435 519 304 167
0 0 0 0 0 2 13 30 30 17 4 4 14 7 3 16 34 31 43 39 25 32 15 4 4 15 1 58 47 13 5 6 2 0 1 2 0 4 15 134 158 128 90 24 6 26 61 43 7 1 4 1 5 40
0 3 0 1 11 4 10 11 22 15 26 32 39 56 45 39 38 23 18 18 15 14 15 6 17 62 77 115 82 32 29 14 0 2 0 0 0 4 2 19 39 3 38 13 14 18 37 31 21 11 5 0 4 23
12 0 21 4 17 23 16 12 7 15 10 20 11 10 12 14 33 41 43 32 41 19 70 51 56 140 118 133 164 124 66 47 15 0 0 4 12 4 0 20 27 3 3 24 43 18 13 6 7 3 0 0 2 2
0 2 26 29 20 10 0 7 16 14 24 11 18 15 21 26 35 49 79 75 54 87 166 137 178 218 244 262 373 351 121 59 39 34 7 21 17 28 34 37 36 34 19 27 29 34 20 0 0 1 0 0 6 6
0 21 16 11 8 1 4 15 15 6 36 2 0 6 20 14 18 7 3 6 17 15 57 146 146 129 226 263 299 204 207 37 9 40 23 40 46 47 67 68 54 50 75 50 19 27 33 25 7 9 29 61 84 133
9 0 0 0 7 13 15 15 29 6 2 1 0 0 0 5 0 1 5 1 0 15 23 97 145 178 107 49 129 80 133 77 21 13 12 20 47 81 89 94 157 126 108 132 107 30 21 7 10 30 28 6 0 7
0 5 0 14 24 14 18 11 2 0 0 1 1 0 2 3 3 0 3 1 0 1 0 2 2 4 41 52 34 66 165 304 77 80 120 71 68 81 120 120 119 81 19 14 6 2 0 3 6 12 0 0 0 11
0 3 7 2 12 3 4 8 1 2 1 1 9 14 6 3 2 0 0 74 54 141 127 147 99 61 99 153 202 142 213 157 66 84 90 38 30 32 90 50 4 0 0 8 15 15 22 7 4 2 1 1 1 1
6 4 1 2 4 9 8 14 2 0 0 7 11 0 0 0 0 0 19 7 114 117 64 38 31 84 109 310 270 228 148 132 132 23 7 1 0 0 0 0 0 0 0 1 1 0 0 0 0 0 0 0 0 0
5 2 5 7 3 7 0 0 0 0 0 0 4 10 33 10 13 19 10 27 59 114 62 68 110 61 52 122 97 127 69 50 116 48 16 11 14 19 3 0 0 0 0 0 0 0 0 0 0 0 0 0 0 1
7 6 1 2 0 4 0 0 0 0 0 19 188 94 67 81 5 11 21 43 76 63 38 42 62 137 152 98 65 103 19 18 21 35 40 23 47 56 54 46 20 14 20 28 16 1 0 0 0 7 2 6 14 5
4 1 0 0 2 8 10 2 18 22 60 121 90 20 46 100 80 88 88 67 63 30 22 26 39 82 153 113 26 41 96 84 25 25 26 28 52 24 56 54 75 64 96 105 117 87 57 41 24 29 11 7 17 29
0 1 3 18 9 13 9 0 10 37 153 41 0 0 24 31 68 70 29 36 30 43 18 20 28 29 24 19 17 8 31 50 38 49 74 56 83 62 40 63 58 114 91 31 27 0 2 39 54 28 22 115 57 33
0 1 3 1 16 19 13 8 93 109 89 13 61 54 56 12 2 9 7 3 17 59 59 51 43 21 15 16 23 12 7 3 0 0 0 0 0 0 19 102 115 94 29 12 0 0 54 51 22 38 33 53 62 45